Location: Silent Lake
(44.9206°N, 78.0708°W)
Time: 23:39:01
(UTC-04:00)

H-2A R/B - Pass Details

Date: 19 April 2018
Orbit: 734 x 837 km, 98.3° (Epoch: 20 September)

Event Time Altitude Azimuth Distance (km) Brightness Sun altitude
Exits shadow 20:59:00 13° 107° (ESE) 2,126 3.6 -10.0°
Maximum altitude 21:02:13 22° 63° (ENE) 1,606 3.4 -10.5°
Drops below altitude 10° 21:06:00 10° 13° (NNE) 2,275 4.7 -11.1°
Sets 21:08:42 0° 359° (N) 3,192 5.7 -11.5°
